Regional Weather Roundup
Issued by NWS

Home | Current Version | Previous Version | Graphics & Text | Print | Product List | Glossary On
Versions: 1 2 3 4 5 6 7 8 9 10 11 12 13 14 15 16 17 18 19 20 21 22 23 24 25 26 27 28 29 30 31 32 33 34 35 36 37 38 39 40 41 42 43 44 45 46 47 48 49 50
505
ASUS44 KMEG 022000
RWRTN
TENNESSEE HOURLY STATE WEATHER ROUNDUP
NATIONAL WEATHER SERVICE MEMPHIS TN
200 PM CST FRI DEC 02 2016

TNZ002-004-019-021-049-052-054-088>092-022100-
WEST TENNESSEE

CITY           SKY/WX    TMP DP  RH WIND       PRES   REMARKS
MEMPHIS INTL   MOSUNNY   62  28  27 W6        30.24F
NWS MEMPHIS      N/A     62 N/A N/A MISG        N/A
JACKSON        SUNNY     59  31  34 NW9       30.24F
DYERSBURG      SUNNY    N/A N/A N/A N3        30.24S
UNION CITY     SUNNY     54  30  40 CALM      30.24R
PARIS          SUNNY     54  28  37 CALM      30.24S
LEXINGTON      SUNNY     59  27  29 W5        30.23S
$$

TNZ008-025-027-028-033-062-065-066-022100-
NORTH MIDDLE TENNESSEE

CITY           SKY/WX    TMP DP  RH WIND       PRES   REMARKS
NASHVILLE      MOSUNNY   58  27  30 NW6       30.23F
CLARKSVILLE    SUNNY     53  29  39 N6        30.24S
SMYRNA         SUNNY     58  29  33 N7        30.24S
CROSSVILLE     SUNNY     52  27  38 W9        30.22R
$$

TNZ061-075-076-078-094-096-097-022100-
SOUTH MIDDLE TENNESSEE

CITY           SKY/WX    TMP DP  RH WIND       PRES   REMARKS
TULLAHOMA      SUNNY     57  23  26 W12       30.23S
WINCHESTER     SUNNY     55  28  35 W6        30.23S
MCMINNVILLE    SUNNY     57  28  33 NW8       30.22S
SHELBYVILLE    SUNNY     61  30  31 W7        30.24S
$$

TNZ017-018-042-046-047-022100-
NORTHEAST TENNESSEE

CITY           SKY/WX    TMP DP  RH WIND       PRES   REMARKS
TRI CITIES     SUNNY     51  27  39 W12G20    30.17S
$$

TNZ012-013-036-069-073-074-022100-
CENTRAL EAST TENNESSEE

CITY           SKY/WX    TMP DP  RH WIND       PRES   REMARKS
KNOXVILLE      MOSUNNY   54  28  36 SW3       30.21S
OAK RIDGE      SUNNY     58  27  30 VRB6      30.21F
GATLINBURG     SUNNY     55  25  30 SW6       30.20F
$$

TNZ083-085-099-022100-
SOUTHEAST TENNESSEE

CITY           SKY/WX    TMP DP  RH WIND       PRES   REMARKS
CHATTANOOGA    MOSUNNY   59  28  30 VRB3      30.21F
$$

SKY/WX REPORTED AS FAIR MEANS FEW OR NO CLOUDS BELOW
12 THOUSAND FEET.





USA.gov is the U.S. government's official web portal to all federal, state and local government web resources and services.